N4WEB Tampa FL US current weather conditions

sailwx.info

Wind from 163 at 0 knots gusting 1

Air temperature 26.7° C
Dewpoint 19.8° C

Last reported at 2019-Sep-19 14:02 UTC.
Time now 2019-Sep-19 15:14 UTC

Location: N 28°05' W 082°28'.
View on Google Maps.

See reports from other nearby stations

  
Tides and Currents Weather Stations Pressure Air Temp Water Temp Dewpoint Dewpoint Depression Visibility Wind Speed Wind Dir Waves Ship Positions
date/time (UTC)wind fromknots sea level pressurealtimeterstation pressurevisibilityair tempwater tempwave heightnotes
2019-Sep-19 14:02 163 0 gusting 1 26.7
2019-Sep-19 13:47 041 0 26.1
2019-Sep-19 13:32 121 1 gusting 0 25.0
2019-Sep-19 13:02 024 23.9
2019-Sep-19 12:47 028 23.3
2019-Sep-19 12:36 22.8
2019-Sep-19 12:32 22.8
2019-Sep-19 12:19 011 22.2
2019-Sep-19 11:47 073 22.2
2019-Sep-19 11:39 073 22.2
2019-Sep-19 11:32 073 22.2
2019-Sep-19 11:16 073 22.2
2019-Sep-19 11:08 073 22.2
2019-Sep-19 11:02 073 22.2
2019-Sep-19 10:47 073 22.2
2019-Sep-19 10:32 073 22.2
2019-Sep-19 10:17 073 22.8
2019-Sep-19 10:05 073 22.2
2019-Sep-19 10:02 073 22.2
2019-Sep-19 09:49 073 22.2
2019-Sep-19 09:32 073 22.8
2019-Sep-19 09:17 073 22.8
2019-Sep-19 09:02 073 22.8
2019-Sep-19 08:49 073 22.8
2019-Sep-19 08:17 073 23.3
2019-Sep-19 08:02 073 23.3
2019-Sep-19 07:48 073 23.3
2019-Sep-19 07:32 073 23.3
2019-Sep-19 07:17 073 23.3
2019-Sep-19 07:02 073 23.9
2019-Sep-19 06:49 073 23.9
2019-Sep-19 06:17 073 23.9
2019-Sep-19 06:02 073 23.9
2019-Sep-19 05:47 073 23.9
2019-Sep-19 05:31 073 23.9
2019-Sep-19 05:16 073 24.4
2019-Sep-19 05:06 034 24.4
2019-Sep-19 05:02 034 24.4
2019-Sep-19 04:47 034 24.4
2019-Sep-19 04:32 034 24.4
2019-Sep-19 04:17 042 0 24.4
2019-Sep-19 04:02 004 24.4
2019-Sep-19 03:47 004 24.4
2019-Sep-19 03:32 004 24.4
2019-Sep-19 03:16 035 0 24.4
2019-Sep-19 03:01 352 24.4
2019-Sep-19 02:47 062 25.0
2019-Sep-19 02:32 062 25.0
2019-Sep-19 02:17 359 1 gusting 1 25.0
2019-Sep-19 02:02 042 1 gusting 1 24.4
2019-Sep-19 01:47 013 24.4
2019-Sep-19 01:32 359 24.4
2019-Sep-19 01:17 359 24.4
2019-Sep-19 01:02 359 23.9
2019-Sep-19 00:47 359 23.9
2019-Sep-19 00:32 359 23.9
2019-Sep-19 00:19 359 23.9
2019-Sep-19 00:02 359 23.3
2019-Sep-18 23:47 359 23.3
2019-Sep-18 23:32 359 23.3
2019-Sep-18 23:16 138 1 23.3
2019-Sep-18 23:01 359 24.4
2019-Sep-18 22:46 359 0 26.7
2019-Sep-18 22:31 020 4 gusting 2 28.3
2019-Sep-18 22:18 347 1 gusting 2 29.4
2019-Sep-18 22:01 018 3 gusting 3 30.0
2019-Sep-18 21:46 166 31.1
2019-Sep-18 21:18 359 1 gusting 0 31.7
2019-Sep-18 20:46 129 1 gusting 2 31.7
2019-Sep-18 20:32 104 2 gusting 2 32.2
2019-Sep-18 20:16 153 33.3
2019-Sep-18 20:01 345 33.9
2019-Sep-18 19:46 065 3 gusting 6 33.9
2019-Sep-18 19:31 060 33.3
2019-Sep-18 19:16 006 0 33.9
2019-Sep-18 19:01 336 33.3
2019-Sep-18 18:47 345 33.3
2019-Sep-18 18:31 359 2 gusting 3 32.8
2019-Sep-18 18:01 023 1 gusting 0 33.9
2019-Sep-18 17:47 042 0 gusting 3 33.3
2019-Sep-18 17:35 096 32.8
2019-Sep-18 17:16 008 0 gusting 0 32.8
2019-Sep-18 17:01 180 0 32.2
2019-Sep-18 16:46 075 0 gusting 1 31.7
2019-Sep-18 16:31 354 2 gusting 2 31.7
2019-Sep-18 16:16 001 0 gusting 1 31.7
2019-Sep-18 16:04 011 0 gusting 0 31.1
2019-Sep-18 15:32 021 0 gusting 2 30.6
2019-Sep-18 15:02 359 29.4
2019-Sep-18 14:47 150 0 28.9
2019-Sep-18 14:32 359 0 28.3
2019-Sep-18 14:17 024 28.3
2019-Sep-18 13:47 359 1 gusting 1 27.2
2019-Sep-18 13:32 049 26.7
2019-Sep-18 13:02 007 1 25.0
2019-Sep-18 12:47 346 24.4
2019-Sep-18 12:32 346 23.3
2019-Sep-18 12:19 356 22.8
2019-Sep-18 12:02 330 22.2
2019-Sep-18 11:47 330 22.2
2019-Sep-18 11:36 330 22.2
2019-Sep-18 11:32 330 22.2
2019-Sep-18 11:19 330 22.2
2019-Sep-18 11:02 330 21.7
2019-Sep-18 10:31 330 21.7
2019-Sep-18 10:24 330 21.7
2019-Sep-18 10:16 330 21.7
2019-Sep-18 10:01 330 21.7
2019-Sep-18 09:31 330 21.7
2019-Sep-18 09:23 330 21.7
2019-Sep-18 09:16 330 21.7
2019-Sep-18 09:01 330 22.2
2019-Sep-18 08:46 330 22.2
2019-Sep-18 08:31 330 22.2
2019-Sep-18 08:21 330 22.2
2019-Sep-18 08:16 330 22.2
2019-Sep-18 08:01 330 22.8
2019-Sep-18 07:46 330 22.8
2019-Sep-18 07:31 330 22.8
2019-Sep-18 07:16 330 22.8
2019-Sep-18 07:01 330 22.8
2019-Sep-18 06:48 330 22.8
2019-Sep-18 06:33 330 23.3
2019-Sep-18 06:03 330 23.3
2019-Sep-18 05:49 330 23.9
2019-Sep-18 05:35 330 23.9
2019-Sep-18 05:33 330 23.9
2019-Sep-18 05:18 330 23.9
2019-Sep-18 05:02 330 24.4
2019-Sep-18 04:48 330 24.4
2019-Sep-18 04:32 330 24.4
2019-Sep-18 04:17 330 25.0
2019-Sep-18 04:04 330 25.0
2019-Sep-18 03:51 330 25.6
2019-Sep-18 03:48 330 25.6
2019-Sep-18 03:33 330 26.1
2019-Sep-18 03:18 330 26.1
2019-Sep-18 03:05 330 26.1
2019-Sep-18 03:00 330 26.1
2019-Sep-18 02:48 330 26.7
2019-Sep-18 02:34 330 26.7
2019-Sep-18 02:02 330 27.2
2019-Sep-18 01:33 330 27.8
2019-Sep-18 01:17 330 27.8
2019-Sep-18 01:00 034 28.3
2019-Sep-18 00:45 352 28.3
2019-Sep-18 00:15 347 28.9
2019-Sep-18 00:00 347 29.4
2019-Sep-17 23:45 347 29.4
2019-Sep-17 23:30 347 30.0
2019-Sep-17 23:15 347 30.6
2019-Sep-17 23:00 347 30.6
2019-Sep-17 22:47 345 0 31.1
2019-Sep-17 22:45 345 0 31.1
2019-Sep-17 22:33 007 0 gusting 0 31.7
2019-Sep-17 22:30 007 0 gusting 0 31.7
2019-Sep-17 22:15 336 1 gusting 0 31.7
2019-Sep-17 22:00 347 1 gusting 2 31.7
2019-Sep-17 21:30 335 0 gusting 1 32.8
2019-Sep-17 21:15 015 0 gusting 3 32.8
2019-Sep-17 21:00 332 0 gusting 0 33.3
2019-Sep-17 20:47 003 2 gusting 1 33.3
2019-Sep-17 20:45 003 2 gusting 1 33.3
2019-Sep-17 20:30 023 0 33.3
2019-Sep-17 20:15 357 0 gusting 0 33.9
2019-Sep-17 20:00 006 3 gusting 2 33.3
2019-Sep-17 19:45 33.9
2019-Sep-17 19:30 354 1 gusting 3 33.9
2019-Sep-17 19:00 128 1 gusting 2 33.9
2019-Sep-17 18:45 330 1 gusting 0 33.9
2019-Sep-17 18:33 343 1 gusting 1 33.9
2019-Sep-17 18:30 343 1 gusting 1 33.9
2019-Sep-17 18:15 350 1 gusting 3 33.3
2019-Sep-17 18:00 027 2 gusting 1 33.9
2019-Sep-17 17:45 052 1 gusting 1 33.3
2019-Sep-17 17:30 118 1 gusting 1 33.9
2019-Sep-17 17:15 340 0 gusting 1 33.3
2019-Sep-17 17:00 359 1 gusting 3 33.3
2019-Sep-17 16:45 028 1 gusting 1 32.8
2019-Sep-17 16:30 017 1 gusting 4 32.8
2019-Sep-17 16:18 347 1 gusting 0 31.7
2019-Sep-17 16:15 347 1 gusting 0 31.7
2019-Sep-17 16:00 340 1 gusting 1 32.2
2019-Sep-17 15:47 352 0 gusting 1 32.2
2019-Sep-17 15:45 352 0 gusting 1 32.2
2019-Sep-17 15:31 010 1 gusting 4 31.1
2019-Sep-17 15:30 010 1 gusting 4 31.1
2019-Sep-17 15:15 342 1 gusting 2 31.1
2019-Sep-17 15:00 031 5 gusting 1 30.6